Location: Boursonne
(49.2024°N, 3.0468°E)
Time: 10:52:31
(UTC+00:00)

Cosmos 2278 Rocket - Pass Details

Date: 03 March 2021
Orbit: 841 x 845 km, 71.0° (Epoch: 10 April)

Event Time Altitude Azimuth Distance (km) Brightness Sun altitude
Rises 20:23:05 0° 331° (NNW) 3,416 6.1 -27.8°
Reaches altitude 10° 20:25:32 10° 332° (NNW) 2,477 5.3 -28.1°
Enters shadow 20:30:48 77° 343° (NNW) 872 2.2 -28.9°
